Simultaneous Nadir Overpasses (SNOs) Predictions

Prediction of SNOs between METOP-B and TERRA Satellite Orbit:

Table of predicted SNOs for the next 14.0 days since TLE Epoch: 8/23/2014
Index Date (METOP-B) Time (METOP-B) Lat,Lon (METOP-B) SZA (METOP-B ) Date (TERRA) Time (TERRA) Lat,Lon (TERRA) SZA (TERRA ) Distance(km) Time Diff (sec)
1 08/24/2014 00:48:19 81.33,-144.52 72.95 08/24/2014 00:48:56 81.33,-144.51 72.96 0.54 37
2 08/24/2014 01:38:59 -81.34, 23.35 106.98 08/24/2014 01:38:22 -81.34, 23.40 106.99 0.93 37
3 08/26/2014 20:22:40 81.33, -77.92 73.96 08/26/2014 20:23:12 81.34, -77.88 73.98 0.74 32
4 08/26/2014 21:13:21 -81.34, 89.58 106.02 08/26/2014 21:12:39 -81.33, 89.68 106.03 1.72 42
5 08/29/2014 15:57:01 81.34, -11.34 74.99 08/29/2014 15:57:28 81.34, -11.32 75.01 0.91 27
6 08/
